07h55 EDT


 

Suivi/Infos de l'aéroport


-ou-


 

Suivi des vols en temps réelFlexjet #437 ✈ 19-06-2013 ✈ KAUS - KPGA

Thumbnail
LXJ437
Flexjet "FLEXJET" (tous les vols) · Richardson, TX
Int'l Austin-Bergstrom ( – info)
Austin, TX
Page Muni ( – info)
Page, AZ
09h16 CDT
09h19 MST
Prévu: 08h30 CDT
Prévu: 08h42 MST
Durée: 2 heures 3 minutes
mercredi, 19 juin 2013
Statut A atterri il y a plus d'un an. (journal de vol & graphique)
Avion Learjet 45 (biréacteur) (LJ45/Q – photos)
Vitesse Plan de vol: 438 kts (graphique)
Altitude Plan de vol: 40.000 Pieds (graphique)
Distance En ligne droite 1.479 km    Parcourue 1.526 km
Route AUS3 JCT Q20 CNX J15 RSK (Décoder)
JOURNAL DE L'ACTIVITE
Vous voulez une recherche complète sur l'historique de LXJ437 depuis 1998? Achetez maintenant. Recevez-le dans l'heure.
Date Avion Provenance Destination Départ Arrivée Durée
21-08-2014 LJ45/LSan Antonio Intl ()Teterboro () 16h27 CDT 21h01 EDT 3:33
20-08-2014 LJ45/LSugar Land Rgnl ()San Antonio Intl () 22h54 CDT 23h26 CDT 0:32
20-08-2014 LJ45/LInt'l Austin-Bergstrom ()Sugar Land Rgnl () 13h45 CDT 14h17 CDT 0:32
20-08-2014 LJ45/LWilliam P Hobby ()Int'l Austin-Bergstrom () 12h40 CDT 13h08 CDT 0:28
20-08-2014 LJ45/LInt'l Austin-Bergstrom ()William P Hobby () 10h07 CDT 10h41 CDT 0:34
20-08-2014 LJ45/LSugar Land Rgnl ()Int'l Austin-Bergstrom () 07h25 CDT 07h56 CDT 0:31
19-08-2014 LJ45/LAddison ()Sugar Land Rgnl () 17h18 CDT 18h02 CDT 0:43
19-08-2014 LJ45/LArlington Muni ()Addison () 08h45 CDT 08h56 CDT 0:10
19-08-2014 LJ45/LSugar Land Rgnl ()Arlington Muni () 07h38 CDT 08h17 CDT 0:38
18-08-2014 LJ45/LSheppard Afb ()Sugar Land Rgnl () 14h23 CDT 15h19 CDT 0:56
18-08-2014 LJ45/LSierra Blanca Rgnl ()Sheppard Afb () 11h23 MDT 13h18 CDT 0:54
18-08-2014 LJ45/LAddison ()Sierra Blanca Rgnl () 09h59 CDT 10h10 MDT 1:11
17-08-2014 LJ45/LSpirit of St Louis ()Addison () 17h01 CDT 18h23 CDT 1:22
17-08-2014 LJ45/LKnox County Rgnl ()Spirit of St Louis () 14h33 EDT 16h14 CDT 2:41
17-08-2014 LJ45/LTeterboro ()Knox County Rgnl () 11h31 EDT 12h19 EDT 0:48
16-08-2014 LJ45/LMorristown Muni ()Teterboro () 16h18 EDT 16h26 EDT 0:08
16-08-2014 LJ45/LCharleston Afb/Intl ()Morristown Muni () 14h10 EDT 15h34 EDT 1:24
16-08-2014 LJ45/LMorristown Muni ()Charleston Afb/Intl () 08h17 EDT 09h45 EDT 1:28
15-08-2014 LJ45/LMartha's Vineyard ()Morristown Muni () 19h30 EDT 20h26 EDT 0:56
15-08-2014 LJ45/LMartha's Vineyard ()Teterboro () 19h30 EDT Dérouté
15-08-2014 LJ45/LWestchester County ()Martha's Vineyard () 18h02 EDT 18h34 EDT 0:32
15-08-2014 LJ45/LAtlantic City Intl ()Westchester County () 14h53 EDT 15h40 EDT 0:47
15-08-2014 LJ45/LPittsfield Muni ()Atlantic City Intl () 12h45 EDT 13h33 EDT 0:47
14-08-2014 LJ45/LBarnstable Muni ()Pittsfield Muni () 18h03 EDT 18h34 EDT 0:31
14-08-2014 LJ45/LSalina Rgnl ()Barnstable Muni () 13h02 CDT 17h11 EDT 3:09
14-08-2014 LJ45/LBob Hope ()Salina Rgnl () 08h10 PDT 12h35 CDT 2:25
14-08-2014 LJ45/LMonterey Rgnl ()Bob Hope () 06h20 PDT 07h01 PDT 0:41
13-08-2014 LJ45/LJackson Hole ()Monterey Rgnl () 15h56 MDT 16h47 PDT 1:51
13-08-2014 LJ45/LInt'l de San José ()Jackson Hole () 12h00 PDT 14h32 MDT 1:32
12-08-2014 LJ45/LInt'l de San Diego ()Int'l de San José () 14h05 PDT 15h04 PDT 0:59
12-08-2014 LJ45/LSanta Barbara Muni ()Int'l de San Diego () 10h30 PDT 11h08 PDT 0:38
12-08-2014 LJ45/LMidland Intl ()Santa Barbara Muni () 09h20 CDT 09h34 PDT 2:13
11-08-2014 LJ45/LVan Nuys ()Midland Intl () 16h09 PDT 20h15 CDT 2:06
10-08-2014 LJ45/LTulsa Intl ()Van Nuys () 10h10 CDT 11h04 PDT 2:54
09-08-2014 LJ45/LDare County Rgnl ()Tulsa Intl () 16h58 EDT 18h33 CDT 2:35
09-08-2014 LJ45/LDes Moines Intl ()Dare County Rgnl () 13h13 CDT 16h04 EDT 1:51
09-08-2014 LJ45/LBoise ()Des Moines Intl () 09h14 MDT 12h34 CDT 2:20
09-08-2014 LJ45/LRoberts Field ()Boise () 06h57 PDT 08h39 MDT 0:42
08-08-2014 LJ45/LWilliam R Fairchild Intl ()Roberts Field () 14h27 PDT 15h09 PDT 0:42
08-08-2014 LJ45/LAspen-Pitkin County ()William R Fairchild Intl () 12h21 MDT 13h33 PDT 2:12
08-08-2014 LJ45/LDallas Love Field ()Aspen-Pitkin County () 09h12 CDT 09h58 MDT 1:46
Les membres inscrits (l'inscription est gratuite et facile!) voient 4 months d'historique. S'inscrire